Minneapolis, MN

9:29 AM CST on December 07, 2016 (GMT -0600)
Crystal

Weather History for KMIC - December, 2013

Change the Weather History Date:

Sunday, December 8, 2013

  Actual Average Record
Temperature  
Mean Temperature 5 °F -  
Max Temperature 12 °F 32 °F 46 °F (1999)
Min Temperature -2 °F 18 °F -7 °F (2007)
Degree Days  
Heating Degree Days 60    
Moisture  
Dew Point 1 °F    
Average Humidity 78    
Maximum Humidity 87    
Minimum Humidity 69    
Precipitation  
Precipitation 0.02 in - - ()
Sea Level Pressure  
Sea Level Pressure 30.25 in    
Wind  
Wind Speed 3 mph (East)    
Max Wind Speed 7 mph    
Max Gust Speed -    
Visibility 3 miles    
Events Snow    
Averages and records for this station are not official NWS values.
T = Trace of Precipitation, MM = Missing Value Source: NWS Daily Summary

Daily Weather History Graph

Daily Weather History Graph

Search for Another Location

Airport or City:

Trip Planner

Search our weather history database for the weather conditions in past years. The results will help you decide how hot, cold, wet, or windy it might be!

Date:

Astronomy

Dec. 08, 2013 Rise Set
Actual Time 7:39 AM CST 4:31 PM CST
Civil Twilight 7:05 AM CST 5:05 PM CST
Nautical Twilight 6:28 AM CST 5:42 PM CST
Astronomical Twilight 5:53 AM CST 6:17 PM CST
Moon 11:47 AM CST (12/8) 11:35 PM CST (12/8)
Length of Visible Light 9h 59m
Length of Day
8h 52m
Waxing Crescent, 40% of the Moon is Illuminated
Dec 8
Waxing Crescent
Dec 9
First Quarter
Dec 17
Full
Dec 25
Last Quarter
Jan 1
New

Hourly Weather History & Observations

Time (CST) Temp. Windchill Dew Point Humidity Pressure Visibility Wind Dir Wind Speed Gust Speed Precip Events Conditions
12:53 AM -2.9 °F - -9.0 °F 75% 30.60 in 9.0 mi Calm Calm - N/A   Clear
1:53 AM -2.0 °F - -9.0 °F 72% 30.58 in 10.0 mi Calm Calm - N/A   Scattered Clouds
2:53 AM -0.9 °F - -8.0 °F 72% 30.55 in 10.0 mi Calm Calm - N/A   Overcast
3:53 AM 1.0 °F -6.7 °F -7.1 °F 69% 30.51 in 4.0 mi East 3.5 mph - 0.00 in Snow Light Snow
4:09 AM 1.4 °F -8.3 °F -5.8 °F 72% 30.42 in 2.0 mi East 4.6 mph - 0.00 in Snow Light Snow
4:51 AM 1.4 °F -8.3 °F -5.8 °F 72% 30.40 in 3.0 mi ENE 4.6 mph - 0.00 in Snow Light Snow
4:53 AM 1.0 °F -10.3 °F -5.1 °F 75% 30.48 in 3.0 mi ENE 5.8 mph - 0.00 in Snow Light Snow
5:13 AM 1.4 °F -6.2 °F -5.8 °F 72% 30.39 in 2.5 mi East 3.5 mph - 0.00 in Snow Light Snow
5:27 AM 1.4 °F -6.2 °F -4.0 °F 78% 30.39 in 1.8 mi East 3.5 mph - 0.00 in Snow Light Snow
5:53 AM 1.9 °F -5.6 °F -4.0 °F 76% 30.46 in 1.2 mi East 3.5 mph - 0.00 in Snow Light Snow
6:34 AM 1.4 °F -9.9 °F -2.2 °F 85% 30.37 in 2.0 mi East 5.8 mph - 0.00 in Snow Light Snow
6:53 AM 1.9 °F -9.2 °F -4.0 °F 76% 30.44 in 2.0 mi East 5.8 mph - 0.00 in Snow Light Snow
7:00 AM 1.4 °F -8.3 °F -2.2 °F 85% 30.36 in 1.8 mi East 4.6 mph - 0.00 in Snow Light Snow
8:43 AM 3.2 °F -9.1 °F -2.2 °F 78% 30.33 in 1.5 mi East 6.9 mph - 0.00 in Snow Light Snow
8:53 AM 3.9 °F -8.2 °F -2.0 °F 76% 30.40 in 1.2 mi East 6.9 mph - 0.00 in Snow Light Snow
9:19 AM 3.2 °F -9.1 °F -0.4 °F 85% 30.31 in 1.2 mi East 6.9 mph - 0.00 in Snow Light Snow
9:53 AM 5.0 °F -5.6 °F -0.0 °F 80% 30.38 in 1.2 mi East 5.8 mph - 0.00 in Snow Light Snow
10:20 AM 6.8 °F -4.8 °F -0.4 °F 72% 30.29 in 2.0 mi ESE 6.9 mph - 0.00 in Snow Light Snow
10:53 AM 7.0 °F -4.5 °F 1.0 °F 77% 30.35 in 2.0 mi East 6.9 mph - 0.00 in Snow Light Snow
11:53 AM 8.1 °F -2.0 °F 1.9 °F 76% 30.30 in 2.0 mi East 5.8 mph - 0.01 in Snow Light Snow
12:00 PM 8.6 °F -1.3 °F 3.2 °F 79% 30.23 in 1.0 mi Variable 5.8 mph - 0.00 in Snow Light Snow
12:53 PM 10.0 °F 1.8 °F 3.9 °F 76% 30.26 in 1.8 mi East 4.6 mph - 0.00 in Snow Light Snow
1:53 PM 10.9 °F 0.2 °F 3.9 °F 73% 30.22 in 1.2 mi ESE 6.9 mph - 0.00 in Snow Light Snow
2:22 PM 10.4 °F -0.4 °F 3.2 °F 73% 30.14 in 2.0 mi East 6.9 mph - 0.00 in Snow Light Snow
2:42 PM 10.4 °F 0.8 °F 3.2 °F 73% 30.14 in 2.5 mi East 5.8 mph - 0.00 in Snow Light Snow
2:53 PM 10.9 °F 0.2 °F 3.9 °F 73% 30.20 in 2.0 mi East 6.9 mph - 0.00 in Snow Light Snow
3:53 PM 12.0 °F 4.1 °F 5.0 °F 73% 30.17 in 2.5 mi East 4.6 mph - 0.00 in Snow Light Snow
4:53 PM 10.9 °F 2.9 °F 5.0 °F 77% 30.16 in 7.0 mi East 4.6 mph - 0.00 in   Overcast
5:49 PM 10.4 °F 4.0 °F 5.0 °F 79% 30.09 in 2.5 mi East 3.5 mph - 0.00 in Snow Light Snow
5:53 PM 10.9 °F 2.9 °F 5.0 °F 77% 30.16 in 2.0 mi East 4.6 mph - 0.00 in Snow Light Snow
6:53 PM 10.9 °F 4.7 °F 5.0 °F 77% 30.13 in 2.5 mi East 3.5 mph - 0.01 in Snow Light Snow
7:21 PM 10.4 °F 4.0 °F 5.0 °F 79% 30.07 in 3.0 mi East 3.5 mph - 0.00 in Snow Light Snow
7:53 PM 10.9 °F - 5.0 °F 77% 30.13 in 3.0 mi Calm Calm - 0.00 in Snow Light Snow
8:53 PM 10.0 °F 3.6 °F 6.1 °F 84% 30.12 in 3.0 mi ESE 3.5 mph - 0.00 in Snow Light Snow
9:00 PM 10.4 °F - 6.8 °F 85% 30.05 in 2.5 mi Calm Calm - 0.00 in Snow Light Snow
9:21 PM 10.4 °F - 6.8 °F 85% 30.04 in 3.0 mi Calm Calm - 0.00 in Snow Light Snow
9:53 PM 10.0 °F - 6.1 °F 84% 30.09 in 3.0 mi Calm Calm - 0.00 in Snow Light Snow
10:23 PM 10.4 °F - 6.8 °F 85% 30.03 in 2.5 mi Calm Calm - 0.00 in Snow Light Snow
10:31 PM 10.4 °F - 6.8 °F 85% 30.03 in 3.0 mi Calm Calm - 0.00 in Snow Light Snow
10:53 PM 10.0 °F - 7.0 °F 87% 30.09 in 4.0 mi Calm Calm - 0.00 in   Overcast
11:20 PM 10.4 °F 4.0 °F 6.8 °F 85% 30.02 in 1.8 mi SSW 3.5 mph - 0.00 in Snow Light Snow
11:46 PM 10.4 °F 4.0 °F 6.8 °F 85% 30.01 in 2.0 mi South 3.5 mph - 0.00 in Snow Light Snow
11:53 PM 10.9 °F - 7.0 °F 84% 30.06 in 3.0 mi Calm Calm - 0.00 in Snow Light Snow